{"data":{"norad_id":55763,"epoch":"2026-09-20T22:00:03.000096Z","epoch_age_seconds":67083,"freshness":"FRESH","line1":"1 55763U 23028Y   26263.91670139  .00079187  00000+0  57074-2 0  9992","line2":"2 55763  70.0006 112.0252 0003149 223.6103 299.5803 15.03703492  5766","mean_motion":15.03703492,"eccentricity":0.0003149,"inclination_deg":70.0006,"raan_deg":112.0252,"arg_perigee_deg":223.6103,"mean_anomaly_deg":299.5803,"bstar":0.0057074,"rev_number":576,"period_min":95.763560280407,"perigee_km":553.30491560693,"apogee_km":557.67171282982,"semimajor_km":6933.6253142184,"source":"CELESTRAK","updated_at":"2026-09-21T09:00:33.315672Z"}}